Weather History for KMWL - November, 2012

Change the Weather History Date:

Thursday, November 1, 2012

  Actual Average Record
Temperature  
Mean Temperature 66 °F -  
Max Temperature 88 °F - - ()
Min Temperature 45 °F - - ()
Cooling Degree Days 1    
Growing Degree Days 16 (Base 50)    
Moisture  
Dew Point 45 °F    
Average Humidity 55    
Maximum Humidity 90    
Minimum Humidity 19    
Precipitation  
Precipitation 0.00 in - - ()
Sea Level Pressure  
Sea Level Pressure 29.96 in    
Wind  
Wind Speed 3 mph (SW)    
Max Wind Speed 13 mph    
Max Gust Speed -    
Visibility 10 miles    
Events      
T = Trace of Precipitation, MM = Missing Value Source: NWS Daily Summary

Daily Weather History Graph

Daily Weather History Graph

Search for Another Location

Airport or City:

Trip Planner

Search our weather history database for the weather conditions in past years. The results will help you decide how hot, cold, wet, or windy it might be!

Date:

Astronomy

Nov. 01, 2012 Rise Set
Actual Time 7:50 AM CDT 6:40 PM CDT
Civil Twilight 7:24 AM CDT 7:06 PM CDT
Nautical Twilight 6:55 AM CDT 7:35 PM CDT
Astronomical Twilight 6:26 AM CDT 8:04 PM CDT
Moon 8:45 PM CDT (11/1) 10:17 AM CDT (11/1)
Length of Visible Light 11h 41m
Length of Day
10h 50m
Waning Gibbous, 93% of the Moon is Illuminated
Nov 1
Waning Gibbous
Nov 6
Last Quarter
Nov 13
New
Nov 20
First Quarter
Nov 28
Full

Hourly Weather History & Observations

Time (CDT) Temp. Dew Point Humidity Pressure Visibility Wind Dir Wind Speed Gust Speed Precip Events Conditions
12:53 AM 53.1 °F 45.0 °F 74% 30.00 in 10.0 mi Calm Calm - N/A   Clear
1:53 AM 50.0 °F 45.0 °F 83% 29.99 in 10.0 mi West 3.5 mph - N/A   Clear
2:53 AM 51.1 °F 44.1 °F 77% 29.98 in 10.0 mi Calm Calm - N/A   Clear
3:53 AM 48.9 °F 44.1 °F 83% 29.98 in 10.0 mi Calm Calm - N/A   Clear
4:53 AM 48.0 °F 43.0 °F 83% 29.97 in 10.0 mi Calm Calm - N/A   Clear
5:53 AM 46.9 °F 43.0 °F 86% 29.97 in 10.0 mi Calm Calm - N/A   Clear
6:53 AM 46.9 °F 43.0 °F 86% 29.98 in 10.0 mi Calm Calm - N/A   Clear
7:53 AM 45.0 °F 42.1 °F 90% 30.00 in 10.0 mi Calm Calm - N/A   Clear
8:53 AM 50.0 °F 45.0 °F 83% 30.02 in 9.0 mi Calm Calm - N/A   Clear
9:53 AM 59.0 °F 45.0 °F 60% 30.03 in 10.0 mi West 3.5 mph - N/A   Clear
10:53 AM 69.1 °F 48.0 °F 47% 30.04 in 10.0 mi West 4.6 mph - N/A   Clear
11:53 AM 75.9 °F 52.0 °F 43% 30.03 in 6.0 mi WNW 9.2 mph - N/A   Haze
12:53 PM 80.6 °F 51.8 °F 37% 30.02 in 8.0 mi West 8.1 mph - N/A   Clear
1:53 PM 84.0 °F 51.1 °F 32% 29.95 in 10.0 mi WSW 8.1 mph - N/A   Clear
2:53 PM 86.0 °F 46.9 °F 26% 29.92 in 10.0 mi SW 8.1 mph - N/A   Clear
3:53 PM 87.8 °F 44.6 °F 22% 29.93 in 10.0 mi WSW 9.2 mph - N/A   Clear
4:53 PM 87.1 °F 39.9 °F 19% 29.89 in 10.0 mi SW 12.7 mph - N/A   Clear
5:53 PM 84.0 °F 43.0 °F 24% 29.90 in 10.0 mi SSW 5.8 mph - N/A   Clear
6:53 PM 75.9 °F 42.1 °F 30% 29.91 in 10.0 mi South 8.1 mph - N/A   Clear
7:53 PM 73.9 °F 42.1 °F 32% 29.92 in 10.0 mi SSW 6.9 mph - N/A   Clear
8:53 PM 69.1 °F 42.1 °F 38% 29.92 in 10.0 mi Calm Calm - N/A   Clear
9:53 PM 63.0 °F 44.1 °F 50% 29.93 in 10.0 mi SE 11.5 mph - N/A   Clear
10:53 PM 62.1 °F 44.1 °F 52% 29.94 in 10.0 mi Calm Calm - N/A   Clear
11:53 PM 60.1 °F 43.0 °F 53% 29.92 in 10.0 mi South 3.5 mph - N/A   Clear